Location: Katowice
(50.2611°N, 19.0242°E)
Time: 02:03:46
(UTC+02:00)

Tiros 1 - Pass Details

Date: 01 September 2019
Orbit: 631 x 664 km, 48.4° (Epoch: 18 September)

Event Time Altitude Azimuth Distance (km) Brightness Sun altitude
Rises 23:16:13 0° 261° (W) 2,916 10.7 -28.6°
Reaches altitude 10° 23:18:32 10° 259° (W) 2,008 9.8 -28.7°
Enters shadow 23:18:49 12° 259° (W) 1,902 9.7 -28.7°
